Location: *
(48.8780°N, 19.2358°E)
Time: 20:12:43
(UTC+00:00)

Cosmos 292 Rocket - Pass Details

Date: 18 October 2019
Orbit: 673 x 695 km, 74.0° (Epoch: 17 November)

Event Time Altitude Azimuth Distance (km) Brightness Sun altitude
Rises 17:12:12 0° 202° (SSW) 3,012 7.4 -14.5°
Reaches altitude 10° 17:14:29 10° 202° (SSW) 2,102 6.5 -14.9°
Maximum altitude 17:19:13 88° 291° (WNW) 682 3.7 -15.7°
Drops below altitude 10° 17:24:00 10° 23° (NNE) 2,120 6.1 -16.4°
Sets 17:26:18 0° 24° (NNE) 3,040 6.9 -16.8°
